Flag for China Weather past 2 weeks in Guilin, Guangxi, China

Now
41 °F

More clouds than sun.


Feels Like: 36 °F
Forecast: 42 / 49 °F
Wind: 8 mph from Northeast

Location: Guilin Airport

Current Time: Jan 31, 2015 at 4:55:23 PM

Latest Report: Jan 31, 2015 at 4:00 PM


Visibility: 5 mi

Pressure: 30.39 "Hg

Humidity: 70%

Dew point: 32 °F

Location of GuilinLocation

Historic Weather in Guilin — Graph

°F

Guilin temperature yesterday

Maximum temperature yesterday: 41 °F (at 1:00 PM)
Minimum temperature yesterday: 37 °F (at 12:00 AM)
Average temperature yesterday: 38 °F

Past Weeks' High & Low Weather Summary

 TemperatureHumidityPressure
High70 °F (Jan 21, 3:00 PM)100% (Jan 17, 4:00 AM)30.51 "Hg (Jan 17, 4:00 AM)
Low36 °F (Jan 31, 4:00 AM)19% (Jan 19, 4:00 PM)29.95 "Hg (Jan 23, 4:00 PM)
Average51 °F75%30.18 "Hg
* Reported Jan 16 3:00 PM — Jan 31 3:00 PM, Guilin, Weather by CustomWeather, © 2014

Note: Actual official high and low records may vary slightly from our data, if they occured in-between our weather recording intervals... More about our weather records

Advertising

Guilin weather history for previous 24 hours

 ConditionsComfort  
Time TempWeatherWind HumidityBarometerVisibility
3:00 PM
Jan 31
41 °FMore clouds than sun.8 mph70%30.39 "Hg5 mi
2:00 PM41 °FMore clouds than sun.8 mph70%30.42 "Hg5 mi
1:00 PM41 °FMore clouds than sun.8 mph70%30.45 "Hg4 mi
12:00 PM41 °FMore clouds than sun.6 mph70%30.48 "Hg3 mi
11:00 AM39 °FFog.1 mph81%30.51 "Hg2 mi
10:00 AM39 °FFog.1 mph81%30.48 "Hg2 mi
9:00 AM37 °FFog.3 mph81%30.48 "Hg2 mi
8:00 AM37 °FFog.3 mph81%30.45 "Hg2 mi
7:00 AM37 °FFog.1 mph81%30.42 "Hg3 mi
6:00 AM36 °FLight rain. Fog.3 mph93%30.39 "Hg3 mi
5:00 AM36 °FFog.6 mph93%30.39 "Hg3 mi
4:00 AM36 °FLight rain. Fog.3 mph93%30.39 "Hg3 mi
3:00 AM37 °FFog.6 mph81%30.39 "Hg3 mi
2:00 AM37 °FFog.6 mph81%30.39 "Hg3 mi
1:00 AM37 °FLight rain. Fog.3 mph81%30.42 "Hg3 mi
12:00 AM37 °FFog.6 mph81%30.39 "Hg3 mi
11:00 PM
Jan 30
37 °FFog.8 mph81%30.39 "Hg3 mi
10:00 PM37 °FOvercast.8 mph81%30.39 "Hg4 mi
9:00 PM37 °FMostly cloudy.8 mph81%30.39 "Hg4 mi
8:00 PM37 °FMostly cloudy.3 mph81%30.39 "Hg4 mi
7:00 PM39 °FMostly cloudy.8 mph75%30.36 "Hg5 mi
6:00 PM39 °FMostly cloudy.6 mph75%30.36 "Hg5 mi
5:00 PM39 °FMostly cloudy.8 mph75%30.33 "Hg6 mi
4:00 PM39 °FMore clouds than sun.8 mph75%30.33 "Hg6 mi
Weather by CustomWeather, © 2014

See weather overviewHow to use our weather pages